Погода Эрмуполисна неделю

Южные Эгейские острова, Греция

31 августа-06 сентября
  • 31августа
    Сегодня
    +25°
    +31°
    Ясно и безоблачно
    ВремяПогодаТемператураВлажностьДавлениеВетер, м/сВероятность осадков
    00:00Ясно и безоблачно+25°C69 %737 мм5.9 м/с2 %
    03:00Ясно и безоблачно+25°C72 %736 мм6.4 м/с2 %
    06:00Ясно и безоблачно+25°C72 %736 мм6.2 м/с2 %
    09:00Ясно и безоблачно+28°C62 %736 мм6.8 м/с2 %
    12:00Ясно и безоблачно+30°C52 %737 мм7.2 м/с2 %
    15:00Ясно и безоблачно+30°C52 %736 мм7.4 м/с2 %
    18:00Ясно и безоблачно+29°C54 %735 мм7.5 м/с2 %
    21:00Ясно и безоблачно+26°C63 %735 мм7.1 м/с2 %
  • 01сентября
    Вторник
    +25°
    +30°
    Ясно и безоблачно
    ВремяПогодаТемператураВлажностьДавлениеВетер, м/сВероятность осадков
    00:00Ясно и безоблачно+26°C68 %735 мм6.9 м/с2 %
    03:00Ясно и безоблачно+25°C71 %735 мм7.4 м/с2 %
    06:00Ясно и безоблачно+25°C69 %735 мм7.6 м/с2 %
    09:00Ясно и безоблачно+27°C69 %735 мм8.4 м/с2 %
    12:00Ясно и безоблачно+29°C66 %736 мм8.6 м/с2 %
    15:00Ясно и безоблачно+30°C63 %736 мм8.4 м/с2 %
    18:00Ясно и безоблачно+29°C60 %735 мм7.8 м/с2 %
    21:00Ясно и безоблачно+26°C65 %735 мм6.5 м/с2 %
  • 02сентября
    Среда
    +25°
    +31°
    Ясно и безоблачно
    ВремяПогодаТемператураВлажностьДавлениеВетер, м/сВероятность осадков
    00:00Ясно и безоблачно+26°C67 %736 мм6.6 м/с2 %
    03:00Ясно и безоблачно+26°C71 %735 мм7.6 м/с2 %
    06:00Ясно и безоблачно+25°C72 %735 мм7.7 м/с2 %
    09:00Ясно и безоблачно+28°C63 %736 мм8.9 м/с2 %
    12:00Ясно и безоблачно+30°C62 %736 мм8.5 м/с2 %
    15:00Ясно и безоблачно+30°C62 %736 мм8.3 м/с2 %
    18:00Ясно и безоблачно+29°C62 %735 мм7.5 м/с2 %
    21:00Ясно и безоблачно+27°C68 %735 мм8.0 м/с2 %
  • 03сентября
    Четверг
    +24°
    +30°
    Ясно и безоблачно
    ВремяПогодаТемператураВлажностьДавлениеВетер, м/сВероятность осадков
    00:00Ясно и безоблачно+26°C68 %735 мм8.0 м/с2 %
    03:00Ясно и безоблачно+26°C69 %734 мм8.0 м/с2 %
    06:00Ясно и безоблачно+25°C67 %733 мм7.9 м/с2 %
    09:00Ясно и безоблачно+27°C62 %734 мм7.7 м/с2 %
    12:00Ясно и безоблачно+29°C64 %735 мм9.0 м/с2 %
    15:00Ясно и безоблачно+29°C61 %733 мм9.0 м/с2 %
    18:00Ясно и безоблачно+28°C58 %733 мм8.1 м/с2 %
    21:00Ясно и безоблачно+26°C67 %733 мм7.5 м/с2 %
  • 04сентября
    Пятница
    +24°
    +28°
    Ясно и безоблачно
    ВремяПогодаТемператураВлажностьДавлениеВетер, м/сВероятность осадков
    00:00Ясно и безоблачно+25°C76 %733 мм7.5 м/с2 %
    03:00Ясно и безоблачно+25°C78 %733 мм8.3 м/с2 %
    06:00Ясно и безоблачно+24°C65 %733 мм7.8 м/с2 %
    09:00Ясно и безоблачно+26°C69 %734 мм8.8 м/с2 %
    12:00Ясно и безоблачно+27°C65 %735 мм10.1 м/с2 %
    15:00Ясно и безоблачно+28°C67 %734 мм8.7 м/с2 %
    18:00Ясно и безоблачно+27°C64 %734 мм9.2 м/с2 %
    21:00Ясно и безоблачно+26°C67 %735 мм8.7 м/с2 %
  • 05сентября
    Суббота
    +24°
    +30°
    Ясно и безоблачно
    ВремяПогодаТемператураВлажностьДавлениеВетер, м/сВероятность осадков
    03:00Ясно и безоблачно+25°C71 %736 мм9.3 м/с2 %
    09:00Ясно и безоблачно+27°C71 %738 мм11.2 м/с2 %
    15:00Ясно и безоблачно+27°C67 %739 мм11.2 м/с2 %
    21:00Ясно и безоблачно+25°C67 %739 мм8.3 м/с2 %
  • 06сентября
    Воскресенье
    +25°
    +29°
    Ясно и безоблачно
    ВремяПогодаТемператураВлажностьДавлениеВетер, м/сВероятность осадков
    03:00Ясно и безоблачно+25°C69 %737 мм8.6 м/с2 %
    09:00Ясно и безоблачно+26°C69 %738 мм8.7 м/с2 %
    15:00Ясно и безоблачно+29°C66 %738 мм8.2 м/с2 %
    21:00Ясно и безоблачно+26°C65 %737 мм8.0 м/с2 %
Мы используем cookies
Соглашаюсь